Location: Copper Breaks State Park
(34.1132°N, 99.7492°W)
Time: 02:08:17
(UTC-06:00)

Daily predictions for brighter satellites

Satellite Brightness Start Highest point End
(mag) Time Altitude Azimuth Time Altitude Azimuth Time Altitude Azimuth
Cosmos 2237 Rocket 4.4 04:22:48 21° E 04:22:48 21° E 04:25:15 10° ESE
Thor Agena Rocket 4.4 05:00:52 10° SSE 05:05:00 49° ESE 05:05:00 49° ESE
Cosmos 1980 4.4 05:09:36 46° SSE 05:09:36 46° SSE 05:13:29 10° SSE
Cosmos 2333 Rocket 3.2 05:21:27 34° S 05:21:27 34° S 05:24:40 10° S
Cosmos 968 Rocket 4.1 05:19:57 10° S 05:25:02 54° ESE 05:30:10 10° NNE
CZ-3 R/B 4.1 05:21:34 33° WSW 05:26:19 37° SW 05:35:09 10° SSE
Cosmos 1864 Rocket 4.3 05:24:09 10° SSW 05:30:25 73° WNW 05:36:23 10° N
Cosmos 1725 Rocket 3.8 05:24:04 10° SSW 05:30:15 72° W 05:36:33 10° N
Cosmos 2219 Rocket 4.0 05:38:09 17° SSW 05:38:09 17° SSW 05:39:30 10° SSW
NOAA 6 4.0 05:31:31 10° NNE 05:36:44 82° ESE 05:41:55 10° S
DMSP 5D-2 F-14 4.5 05:36:12 10° N 05:41:36 74° WNW 05:47:00 10° SSW
USA 229 DEB 3.9 05:38:23 28° NNW 05:42:28 75° ENE 05:49:42 10° SE
USA 229 3.9 05:38:27 28° NNW 05:42:34 74° ENE 05:49:49 10° SE
Cosmos 304 Rocket 4.5 05:43:29 22° N 05:46:23 51° ENE 05:51:01 10° SSE
Cosmos 1461 4.2 05:48:18 27° S 05:48:18 27° S 05:50:24 10° S
ISS -1.0 05:48:48 19° NE 05:48:48 19° NE 05:51:06 10° E
OAO 2 Rocket 3.1 05:48:32 72° NW 05:48:59 80° N 05:53:55 10° E
Cosmos 540 Rocket 3.5 05:57:07 52° W 05:57:35 54° WSW 06:02:31 10° S
Cosmos 783 Rocket 4.4 05:56:53 36° NNW 05:59:03 72° WSW 06:04:14 10° S
Aureole 2 Rocket 2.7 06:00:00 63° WNW 06:00:28 71° WSW 06:04:33 10° S
Cosmos 2237 Rocket 2.9 06:04:42 33° WSW 06:04:42 33° WSW 06:09:27 10° SSW
DELTA 2 R/B (1) 3.8 06:02:14 26° SW 06:05:19 69° SSE 06:10:51 10° ENE
Cosmos 1743 Rocket 3.5 06:05:12 44° NW 06:06:15 57° W 06:10:31 10° S
OE (NEXTSAT) 4.2 06:08:14 68° WSW 06:08:28 72° SW 06:12:01 10° SE
SL-16 R/B 2.1 06:04:45 20° NNW 06:08:44 80° WSW 06:14:23 10° SSE
PSLV R/B 3.4 06:11:31 56° NNW 06:11:31 56° NNW 06:14:49 10° ENE
Cosmos 1842 Rocket 3.7 06:08:03 10° SSW 06:12:13 47° W 06:16:26 10° N
Cosmos 2297 Rocket 3.7 06:15:15 18° NNW 06:15:15 18° NNW 06:17:33 10° N
COSMO-SKYMED 1 2.4 06:09:09 10° S 06:13:27 68° W 06:16:41 17° NNW
IDEFIX/ARIANE 42P 4.2 06:14:04 10° NNE 06:18:55 37° E 06:23:45 10° SSE
Cosmos 2233 Rocket 4.2 06:13:37 10° SSW 06:19:33 46° W 06:25:34 10° N
ERBS 4.4 06:18:03 13° N 06:20:11 23° NE 06:22:57 10° E
Cosmos 2151 2.9 06:17:19 10° N 06:21:34 90° ESE 06:25:48 10° S
Cosmos 1271 Rocket 2.5 06:20:38 10° SSW 06:24:27 67° W 06:28:14 10° N
Cosmos 1340 Rocket 3.1 06:21:51 10° N 06:25:46 65° E 06:29:42 10° SSE
Meteor 1-28 Rocket 3.0 06:23:05 10° S 06:26:50 73° W 06:30:35 10° NNW
Meteor 1-11 4.3 06:21:48 10° N 06:27:39 89° E 06:33:27 10° S
Cosmos 1538 Rocket 4.0 06:22:58 10° NNW 06:28:23 89° WSW 06:33:43 10° SSE
Meteor 1-16 Rocket 4.2 06:24:02 10° SSW 06:29:22 54° W 06:34:36 10° N
IUS-9 SRM-1 3.7 06:26:32 14° WSW 06:29:53 25° SSW 06:32:01 10° SE
Cosmos 1500 Rocket 4.0 06:29:44 13° NNW 06:33:18 39° W 06:37:26 10° SSW
SL-14 R/B 3.4 06:32:02 10° NNW 06:36:01 56° W 06:39:58 10° S
NOSS 3-1 (C) 4.3 06:29:38 10° NNW 06:37:26 75° ENE 06:45:51 10° SE
Cosmos 2034 Rocket 4.1 06:33:01 10° S 06:39:10 79° E 06:45:24 10° N
Ariane Rocket 3.1 06:34:14 10° N 06:39:11 52° WNW 06:44:07 10° SSW
YAOGAN 3 4.5 06:36:01 10° N 06:40:22 71° WNW 06:44:42 10° SSW
SJ-12 4.2 06:38:24 10° NNE 06:42:28 69° E 06:46:30 10° S
Cosmos 1626 3.3 06:40:18 10° N 06:43:54 45° E 06:47:29 10° SSE
IRS-1A Rocket 4.4 06:41:10 10° NNE 06:47:05 87° WNW 06:52:53 10° SSW
BREEZE-M DEB (TANK) 3.8 06:34:25 11° NW 06:47:09 55° SW 06:50:57 10° SSE
Sich 1 4.1 06:46:33 10° N 06:50:47 49° E 06:54:57 10° SSE
Cosmos 389 Rocket 3.6 06:48:02 10° S 06:51:34 50° E 06:55:09 10° NNE
SMAP 3.4 06:48:01 10° NNE 06:52:41 70° ESE 06:57:18 10° S
Cosmos 1633 Rocket 4.2 06:48:54 10° N 06:53:05 45° E 06:57:13 10° SSE
Meteor 2-1 Rocket 4.3 06:48:21 10° SSW 06:53:47 53° W 06:59:21 10° N
Tiangong 2 1.4 06:52:33 10° SW 06:55:39 67° SSE 06:58:46 10° ENE
CZ-2C R/B 2.2 06:52:13 10° NNE 06:56:49 89° W 07:01:23 10° SSW
CZ-4 R/B 1.3 06:54:38 10° N 06:58:41 73° WNW 07:02:48 10° SSW
PAYLOAD A 4.2 07:00:47 10° N 07:05:33 46° WNW 07:10:09 10° SW
GPS 2-05 Rocket1 2.8 07:03:55 11° W 07:07:02 65° N 07:10:22 10° E
CORIOLIS 4.4 07:02:52 10° NNE 07:08:18 81° ESE 07:13:44 10° S
Cosmos 1464 Rocket 4.4 07:04:11 10° SSW 07:10:06 41° W 07:16:01 10° N
Atlas 2A Centaur Rocket 3.2 07:08:14 10° SW 07:10:22 17° S 07:11:52 10° SE
Milstar 3 Cent rocket 4.0 07:04:15 10° SW 07:10:28 30° SSE 07:14:47 10° ESE
Cosmos 1908 3.1 07:07:20 10° S 07:11:08 81° W 07:14:59 10° N
YAOGAN 1 2.5 07:07:10 10° N 07:11:30 80° WNW 07:15:49 10° SSW
Coronas F rocket 1.7 07:09:38 10° N 07:12:00 56° E 07:14:21 10° SSE
Cosmos 1603 3.8 07:07:05 10° NNW 07:12:40 64° WSW 07:18:14 10° S
Cosmos 2263 Rocket 2.4 07:08:38 10° SSW 07:14:17 82° ESE 07:20:00 10° NNE
Cosmos 2112 Rocket 4.3 07:14:04 10° NNW 07:19:25 77° ENE 07:24:45 10° SSE
Cosmos 773 Rocket 4.5 07:16:07 10° NNW 07:21:03 41° WSW 07:26:00 10° S
